Location: ???
(35.5616°N, 139.7977°E)
Time: 19:05:42
(UTC+00:00)

Cosmos 1725 Rocket - Pass Details

Date: 17 November 2025
Orbit: 962 x 989 km, 82.9° (Epoch: 08 December)

Event Time Altitude Azimuth Distance (km) Brightness Sun altitude
Exits shadow 19:22:41 43° 245° (WSW) 1,342 4.3 -23.6°
Drops below altitude 10° 19:27:40 10° 198° (SSW) 2,721 6.2 -22.6°
Sets 19:30:15 0° 193° (SSW) 3,661 7.0 -22.1°
